CW2399 Weather Reports


Display with metric or nautical units.
time (UTC)temp
F
wind
direction
speed
MPH
gust
MPH
rain 1hr
in
rain 24hr
in
rain mn
in
humidity
%
barometer
mb
20260505113402 42 153 0.0 0.0 0.01 0.16 0.13 79 1003.9
20260505112902 42 153 0.0 0.0 0.02 0.16 0.13 80 1003.9
20260505112402 42 153 0.0 0.0 0.02 0.16 0.13 81 1003.8
20260505111903 42 153 0.0 0.0 0.02 0.16 0.13 81 1003.8
20260505111402 42 153 0.0 0.0 0.01 0.15 0.12 81 1003.7
20260505110903 42 153 0.0 0.0 0.01 0.15 0.12 82 1003.7
20260505110402 42 153 0.0 0.0 0.01 0.15 0.12 82 1003.7
20260505101903 45 153 0.0 0.0 0.01 0.14 0.11 81 1003.8
20260505101402 45 153 0.0 0.0 0.02 0.14 0.11 80 1003.8
20260505100902 46 153 0.0 0.0 0.02 0.14 0.11 79 1003.8
20260505100403 46 130 0.0 0.0 0.02 0.14 0.11 78 1003.8
20260505095902 46 153 0.0 0.0 0.02 0.14 0.11 79 1004.0
20260505095403 46 153 0.0 0.0 0.03 0.14 0.11 80 1003.9
20260505094403 46 166 0.0 0.0 0.03 0.14 0.11 82 1003.9
20260505093902 46 180 0.0 2.0 0.02 0.13 0.10 82 1003.9
20260505093403 46 196 0.0 0.0 0.03 0.13 0.10 82 1003.8
20260505092402 46 180 0.0 0.0 0.03 0.13 0.10 80 1003.9
20260505091903 46 119 0.0 0.0 0.04 0.13 0.10 79 1003.9
20260505091403 46 105 0.0 0.0 0.03 0.12 0.09 78 1003.8
20260505090902 47 105 0.0 0.0 0.03 0.12 0.09 78 1003.7
20260505090403 47 129 0.0 0.0 0.04 0.12 0.09 77 1003.7
20260505085903 47 119 0.0 0.0 0.04 0.12 0.09 76 1003.8
20260505085403 47 95 0.0 7.0 0.04 0.11 0.08 76 1003.9
20260505084902 47 109 1.0 10.0 0.04 0.11 0.08 76 1004.0
20260505083902 47 97 3.0 10.0 0.05 0.11 0.08 78 1004.1
20260505083403 47 112 4.0 14.0 0.04 0.10 0.07 78 1004.1
20260505082904 47 96 8.0 14.0 0.05 0.10 0.07 78 1004.1
20260505082403 47 107 5.0 12.0 0.05 0.10 0.07 79 1004.0
20260505080902 47 108 12.0 22.0 0.05 0.09 0.06 81 1004.1
20260505080403 47 97 7.0 17.0 0.04 0.08 0.05 82 1004.2
20260505075902 47 119 6.0 14.0 0.04 0.08 0.05 83 1004.5
20260505075403 47 113 7.0 16.0 0.04 0.07 0.04 84 1004.5
20260505074903 47 107 3.0 13.0 0.04 0.07 0.04 84 1004.7
20260505074403 47 110 3.0 9.0 0.03 0.06 0.03 83 1004.8
20260505073903 47 107 2.0 7.0 0.03 0.06 0.03 83 1004.9
20260505073403 47 144 3.0 7.0 0.03 0.06 0.03 84 1005.0
20260505072903 48 126 1.0 5.0 0.02 0.05 0.02 83 1005.0
20260505072403 48 111 1.0 7.0 0.02 0.05 0.02 83 1005.0
20260505071902 48 118 0.0 1.0 0.02 0.05 0.02 84 1005.2
20260505070904 48 184 0.0 1.0 0.01 0.04 0.01 85 1005.1
20260505065903 49 223 0.0 0.0 0.01 0.04 0.01 84 1004.8
20260505065403 49 223 0.0 0.0 0.00 0.03 0.00 84 1004.8
20260505064903 48 223 0.0 0.0 0.00 0.03 0.00 84 1004.7
20260505064403 48 223 0.0 6.0 0.00 0.03 0.00 83 1004.6
20260505063403 48 221 2.0 5.0 0.00 0.03 0.00 82 1004.5
20260505062903 48 87 0.0 0.0 0.00 0.03 0.00 82 1004.3
20260505062403 48 87 0.0 0.0 0.00 0.03 0.00 82 1004.2
20260505061904 48 87 0.0 0.0 0.00 0.03 0.00 82 1004.1
20260505061403 48 87 0.0 0.0 0.00 0.03 0.00 83 1004.0
20260505060903 48 87 0.0 0.0 0.00 0.03 0.00 83 1003.9
20260505055903 48 87 0.0 0.0 0.00 0.03 0.03 83 1003.8
20260505055403 47 87 0.0 0.0 0.00 0.03 0.03 83 1003.8
20260505054903 47 87 0.0 0.0 0.00 0.03 0.03 83 1003.8
20260505054403 47 87 0.0 0.0 0.00 0.03 0.03 83 1003.8
20260505053403 47 87 0.0 0.0 0.00 0.03 0.03 83 1004.1
20260505052903 47 87 0.0 0.0 0.00 0.03 0.03 83 1004.1
20260505052403 48 87 0.0 0.0 0.00 0.03 0.03 82 1004.3
20260505051903 48 87 0.0 0.0 0.00 0.03 0.03 82 1004.3
20260505051404 48 87 0.0 0.0 0.00 0.03 0.03 82 1004.2
20260505050904 48 87 0.0 0.0 0.00 0.03 0.03 81 1004.2
20260505050403 48 87 0.0 0.0 0.00 0.03 0.03 81 1004.2
20260505041403 49 38 0.0 0.0 0.01 0.03 0.03 81 1003.8
20260505040904 49 38 0.0 0.0 0.01 0.03 0.03 81 1003.7
20260505040403 49 24 0.0 0.0 0.01 0.03 0.03 82 1003.6
20260505035903 49 40 0.0 0.0 0.01 0.03 0.03 81 1003.6
20260505035403 50 40 0.0 0.0 0.02 0.03 0.03 79 1003.6
20260505034403 50 96 0.0 0.0 0.02 0.03 0.03 79 1003.5
20260505033903 50 98 0.0 0.0 0.02 0.03 0.03 80 1003.5
20260505033403 50 98 0.0 0.0 0.03 0.03 0.03 80 1003.3
20260505032403 50 97 0.0 0.0 0.03 0.03 0.03 80 1003.1
20260505031903 50 95 0.0 2.0 0.03 0.03 0.03 80 1003.0
20260505031403 51 86 0.0 3.0 0.02 0.02 0.02 80 1003.0
20260505030904 51 53 0.0 1.0 0.02 0.02 0.02 78 1003.0
20260505030404 51 34 0.0 0.0 0.02 0.02 0.02 76 1003.1
20260505025903 52 350 0.0 0.0 0.02 0.02 0.02 73 1003.0
20260505025404 52 344 0.0 0.0 0.01 0.01 0.01 72 1002.9
20260505024403 53 184 3.0 12.0 0.01 0.01 0.01 69 1003.3
20260505023903 53 92 2.0 12.0 0.01 0.01 0.01 69 1003.1
20260505022903 54 106 4.0 13.0 0.00 0.00 0.00 66 1002.5
20260505022403 54 85 2.0 10.0 0.00 0.00 0.00 66 1002.4
20260505021904 56 34 5.0 10.0 0.00 0.00 0.00 59 1002.4
20260505021403 58 23 2.0 7.0 0.00 0.00 0.00 51 1002.1
20260505020904 58 22 0.0 0.0 0.00 0.00 0.00 50 1002.1
20260505020404 59 346 0.0 0.0 0.00 0.00 0.00 46 1001.9
20260505015404 60 314 2.0 15.0 0.00 0.00 0.00 44 1001.6
20260505014903 60 247 0.0 0.0 0.00 0.00 0.00 43 1001.6
20260505013903 60 308 0.0 6.0 0.00 0.00 0.00 43 1001.3
20260505013404 61 225 1.0 8.0 0.00 0.00 0.00 43 1001.2
20260505012904 61 245 2.0 7.0 0.00 0.00 0.00 43 1000.8
20260505012404 62 220 0.0 5.0 0.00 0.00 0.00 43 1000.7
20260505011903 63 233 0.0 6.0 0.00 0.00 0.00 40 1000.5
20260505010403 63 241 0.0 5.0 0.00 0.00 0.00 38 1000.2
20260505005903 64 234 2.0 8.0 0.00 0.00 0.00 37 1000.2
20260505005403 64 231 2.0 9.0 0.00 0.00 0.00 37 1000.2
20260505004404 64 224 2.0 8.0 0.00 0.00 0.00 36 1000.3
20260505003904 64 232 5.0 12.0 0.00 0.00 0.00 35 1000.3
20260505003404 64 221 7.0 15.0 0.00 0.00 0.00 35 1000.3
20260505002903 65 229 3.0 12.0 0.00 0.00 0.00 35 1000.3
20260505002404 65 224 8.0 17.0 0.00 0.00 0.00 34 1000.3
20260505001901 66 225 5.0 10.0 0.00 0.00 0.00 34 1000.0
20260505001401 66 235 3.0 9.0 0.00 0.00 0.00 32 1000.1
20260505000901 65 219 0.0 3.0 0.00 0.00 0.00 30 1000.0
20260504235901 65 218 0.0 10.0 0.00 0.00 0.00 30 1000.3
20260504235401 66 235 11.0 23.0 0.00 0.00 0.00 30 1000.3
20260504234901 66 226 5.0 9.0 0.00 0.00 0.00 30 1000.2
20260504234401 66 230 7.0 12.0 0.00 0.00 0.00 31 1000.1
20260504233901 67 233 5.0 9.0 0.00 0.00 0.00 30 1000.0
20260504233402 67 224 2.0 5.0 0.00 0.00 0.00 30 1000.1
20260504232901 67 220 1.0 7.0 0.00 0.00 0.00 31 1000.1
20260504232401 67 105 0.0 0.0 0.00 0.00 0.00 31 999.9
20260504231902 67 105 0.0 2.0 0.00 0.00 0.00 31 999.9
20260504231401 67 105 3.0 7.0 0.00 0.00 0.00 31 999.9
20260504230401 67 73 1.0 6.0 0.00 0.00 0.00 31 999.9
20260504225901 67 38 1.0 6.0 0.00 0.00 0.00 31 1000.0
20260504225401 67 25 1.0 8.0 0.00 0.00 0.00 30 1000.1
20260504224901 67 92 1.0 6.0 0.00 0.00 0.00 32 1000.2
20260504224401 66 69 1.0 7.0 0.00 0.00 0.00 33 1000.1
20260504223901 65 152 0.0 0.0 0.00 0.00 0.00 33 1000.4
20260504223401 65 153 2.0 3.0 0.00 0.00 0.00 32 1000.4
20260504222901 66 96 1.0 3.0 0.00 0.00 0.00 34 1000.5
20260504222401 66 22 0.0 0.0 0.00 0.00 0.00 37 1000.5
20260504221901 66 20 0.0 0.0 0.00 0.00 0.00 30 1000.6
20260504221401 66 334 0.0 0.0 0.00 0.00 0.00 30 1000.6
20260504220901 67 334 0.0 5.0 0.00 0.00 0.00 29 1000.6
20260504220401 68 314 3.0 8.0 0.00 0.00 0.00 30 1000.5
20260504215402 67 281 0.0 6.0 0.00 0.00 0.00 32 1000.7
20260504214901 66 248 0.0 3.0 0.00 0.00 0.00 32 1000.8
20260504214401 66 330 0.0 3.0 0.00 0.00 0.00 32 1000.9
20260504213401 67 228 0.0 0.0 0.00 0.00 0.00 32 1001.0
20260504212902 67 130 1.0 5.0 0.00 0.00 0.00 32 1001.1
20260504212402 67 240 1.0 7.0 0.00 0.00 0.00 31 1001.0
20260504211901 68 135 1.0 5.0 0.00 0.00 0.00 28 1001.0
20260504211402 69 242 0.0 3.0 0.00 0.00 0.00 27 1000.8
20260504205902 71 268 6.0 9.0 0.00 0.00 0.00 25 1000.5
20260504205402 71 258 1.0 7.0 0.00 0.00 0.00 25 1000.6
20260504204901 71 267 3.0 13.0 0.00 0.00 0.00 24 1000.7
20260504204401 71 272 0.0 7.0 0.00 0.00 0.00 24 1000.7
20260504203402 71 317 1.0 8.0 0.00 0.00 0.00 25 1000.9
20260504202901 71 285 1.0 8.0 0.00 0.00 0.00 26 1001.0
20260504202402 70 341 0.0 0.0 0.00 0.00 0.00 27 1001.1
20260504201902 70 310 3.0 9.0 0.00 0.00 0.00 26 1001.3
20260504200902 71 286 1.0 6.0 0.00 0.00 0.00 27 1001.4
20260504200401 71 224 1.0 7.0 0.00 0.00 0.00 26 1001.5
20260504195902 70 248 3.0 9.0 0.00 0.00 0.00 28 1001.5
20260504195402 68 255 3.0 9.0 0.00 0.00 0.00 29 1001.6
20260504193901 69 270 2.0 14.0 0.00 0.00 0.00 31 1001.7
20260504193401 69 246 6.0 15.0 0.00 0.00 0.00 31 1001.7
20260504192901 68 265 5.0 15.0 0.00 0.00 0.00 31 1001.8
20260504192402 68 281 5.0 15.0 0.00 0.00 0.00 31 1001.8
20260504191901 69 315 5.0 10.0 0.00 0.00 0.00 30 1001.7
20260504190901 69 305 3.0 7.0 0.00 0.00 0.00 28 1001.8
20260504190402 69 236 1.0 6.0 0.00 0.00 0.00 28 1001.9
20260504185902 68 270 1.0 6.0 0.00 0.00 0.00 27 1002.0
20260504185402 70 89 1.0 6.0 0.00 0.00 0.00 26 1002.0
20260504184901 71 289 0.0 3.0 0.00 0.00 0.00 25 1002.1
20260504184402 71 228 5.0 8.0 0.00 0.00 0.00 25 1002.2
20260504183902 71 256 2.0 6.0 0.00 0.00 0.00 25 1002.3
20260504182902 68 325 1.0 5.0 0.00 0.00 0.00 27 1002.6
20260504182401 66 22 0.0 5.0 0.00 0.00 0.00 28 1002.6
20260504181902 66 16 0.0 6.0 0.00 0.00 0.00 28 1002.6
20260504181402 66 24 0.0 1.0 0.00 0.00 0.00 27 1002.8
20260504175902 67 193 1.0 7.0 0.00 0.00 0.00 26 1003.0
20260504175401 68 218 1.0 7.0 0.00 0.00 0.00 28 1003.1
20260504174901 67 259 4.0 8.0 0.00 0.00 0.00 27 1003.1
20260504174401 67 228 1.0 5.0 0.00 0.00 0.00 28 1003.1
20260504173403 67 226 6.0 9.0 0.00 0.00 0.00 28 1003.2
20260504172901 68 190 3.0 9.0 0.00 0.00 0.00 28 1003.2
20260504172402 67 241 3.0 8.0 0.00 0.00 0.00 27 1003.3
20260504171902 68 227 2.0 6.0 0.00 0.00 0.00 27 1003.3
20260504170402 66 229 1.0 5.0 0.00 0.00 0.00 30 1003.6
20260504160402 62 224 3.0 9.0 0.00 0.00 0.00 38 1004.2
20260504150902 60 199 0.0 1.0 0.00 0.00 0.00 43 1004.7
20260504150401 59 199 0.0 0.0 0.00 0.00 0.00 44 1004.8
20260504140902 53 217 0.0 0.0 0.00 0.00 0.00 60 1005.0
20260504140402 52 217 0.0 0.0 0.00 0.00 0.00 59 1005.1